Location: Saint-Hippolyte
(43.6394°N, 4.7559°E)
Time: 15:32:12
(UTC+00:00)

CRYOSAT 2 - Pass Details

Date: 24 October 2020
Orbit: 714 x 725 km, 92.0° (Epoch: 23 November)

Event Time Altitude Azimuth Distance (km) Brightness Sun altitude
Rises 18:38:21 0° 5° (N) 3,131 7.7 -21.5°
Reaches altitude 10° 18:40:38 10° 7° (N) 2,206 6.8 -22.0°
Maximum altitude 18:45:31 81° 94° (E) 728 4.2 -22.8°
Drops below altitude 10° 18:50:22 10° 183° (S) 2,187 6.8 -23.7°
Sets 18:52:38 0° 184° (S) 3,103 7.6 -24.1°
